Location: Dumpton Point
(51.3500°N, 1.4433°E)
Time: 12:21:18
(UTC+00:00)

Envisat - Pass Details

Date: 14 December 2021
Orbit: 764 x 766 km, 98.2° (Epoch: 23 January)

Event Time Altitude Azimuth Distance (km) Brightness Sun altitude
Rises 04:18:02 0° 20° (NNE) 3,246 6.5 -32.0°
Reaches altitude 10° 04:20:32 10° 29° (NNE) 2,315 5.8 -31.6°
Maximum altitude 04:25:13 36° 96° (E) 1,204 4.4 -30.8°
Drops below altitude 10° 04:29:52 10° 162° (SSE) 2,297 5.6 -30.1°
Sets 04:32:20 0° 171° (S) 3,218 6.3 -29.7°
